This is the latest recevied weather packets stored in our database for station/object SP1BMW-13. If no packets are shown the sender has not sent any weather packets the latest 10 day(s).
| Time | Temp. | Humidity | Pressure | Rain* | Wind** | Luminosity | Snow |
|---|---|---|---|---|---|---|---|
| 1787893517 | 17.78° C | 62% | 1012.4 hPa | 0 mm | 0.89 m/s, 46° | 40 W/m² | - |
| 1787893457 | 17.78° C | 62% | 1012.2 hPa | 0 mm | 0.45 m/s, 91° | 39 W/m² | - |
| 1787893398 | 17.78° C | 62% | 1012.4 hPa | 0 mm | 1.79 m/s, 33° | 37 W/m² | - |
| 1787893338 | 17.78° C | 62% | 1012.3 hPa | 0 mm | 1.79 m/s, 115° | 35 W/m² | - |
| 1787893278 | 17.78° C | 61% | 1012.3 hPa | 0 mm | 1.79 m/s, 38° | 34 W/m² | - |
| 1787893218 | 17.78° C | 62% | 1012.4 hPa | 0 mm | 2.68 m/s, 108° | 33 W/m² | - |
| 1787893158 | 17.78° C | 62% | 1012.4 hPa | 0 mm | 1.79 m/s, 146° | 32 W/m² | - |
| 1787893098 | 17.78° C | 62% | 1012.2 hPa | 0 mm | 1.34 m/s, 50° | 31 W/m² | - |
| 1787893038 | 17.78° C | 62% | 1012.4 hPa | 0 mm | 0.89 m/s, 46° | 31 W/m² | - |
| 1787892978 | 17.78° C | 62% | 1012.4 hPa | 0 mm | 1.34 m/s, 180° | 31 W/m² | - |
| 1787892918 | 17.78° C | 62% | 1012.3 hPa | 0 mm | 2.24 m/s, 99° | 30 W/m² | - |
| 1787892857 | 17.78° C | 61% | 1012.4 hPa | 0 mm | 1.79 m/s, 14° | 29 W/m² | - |
| 1787892798 | 17.78° C | 61% | 1012.7 hPa | 0 mm | 1.34 m/s, 77° | 29 W/m² | - |
| 1787892738 | 17.78° C | 61% | 1012.8 hPa | 0 mm | 0.89 m/s, 97° | 29 W/m² | - |
| 1787892678 | 17.78° C | 61% | 1012.7 hPa | 0 mm | 1.79 m/s, 43° | 28 W/m² | - |
| 1787892617 | 17.78° C | 61% | 1012.8 hPa | 0 mm | 0.45 m/s, 64° | 27 W/m² | - |
| 1787892558 | 17.78° C | 61% | 1012.6 hPa | 0 mm | 1.79 m/s, 345° | 26 W/m² | - |
| 1787892498 | 17.78° C | 61% | 1012.7 hPa | 0 mm | 1.79 m/s, 115° | 25 W/m² | - |
| 1787892438 | 17.78° C | 61% | 1012.6 hPa | 0 mm | 2.68 m/s, 125° | 24 W/m² | - |
| 1787892378 | 17.78° C | 61% | 1012.8 hPa | 0 mm | 1.79 m/s, 114° | 23 W/m² | - |
| 1787892318 | 17.78° C | 61% | 1012.9 hPa | 0 mm | 1.79 m/s, 16° | 22 W/m² | - |
| 1787892258 | 17.78° C | 61% | 1013 hPa | 0 mm | 1.79 m/s, 45° | 21 W/m² | - |
| 1787892197 | 17.78° C | 61% | 1012.9 hPa | 0 mm | 1.34 m/s, 90° | 20 W/m² | - |
| 1787892137 | 17.78° C | 61% | 1012.7 hPa | 0 mm | 1.79 m/s, 252° | 19 W/m² | - |
| 1787892078 | 17.78° C | 61% | 1012.7 hPa | 0 mm | 1.34 m/s, 126° | 18 W/m² | - |
* Rain latest hour (hover to see other rain measurements)
** Current wind speed in m/s (hover to see current wind gust speed)